Find Starlink 11264

NORAD ID: 60906 Int'l Des: 2024-154 Owner: SPXS Country: US Constellation: starlink operational
LEOCIRCULAR

实时位置

正在加载3D地球...

关于 Starlink 11264

正在加载描述...

即将过境

Passes for default location (London). Set your location on the main map for personalized predictions.

高度历史

Loading altitude history...

两行轨道根数

1 60906U 24154D 26124.54481907 .00000539 00000-0 93063-5 0 9993
2 60906 53.1587 216.1676 0001304 61.4117 298.7032 15.69708650 97283
Epoch: May 4, 2026 • Age: 25 hours

当前状态

高度 373.3 km
速度 7.68 km/s
星下点 -39.01°S, 13.01°W
发射日期 Aug 31, 2024
运行时间 1.6 years
类型 internet

技术详情

分类 Payload
质量 960.00 kg
干质量 910.00 kg
总质量 960.00 kg
长度 0.30 m
直径 4.10 m
跨度 29.00 m
形状 Box + pan
制造商 SPXS
平台类型 Starlink V2MD
阶段状态 In Orbit
所有者/国家 SPXS/US

Most Searched